Regional Weather Roundup
Issued by NWS

Home | Current Version | Previous Version | Graphics & Text | Print | Product List | Glossary On
Versions: 1 2 3 4 5 6 7 8 9 10 11 12 13 14 15 16 17 18 19 20 21 22 23 24 25 26 27 28 29 30 31 32 33 34 35 36 37 38 39 40 41 42 43 44 45 46 47 48 49 50
000
ASUS43 KDTX 311601
RWRMI
MICHIGAN HOURLY REGIONAL WEATHER ROUNDUP
NATIONAL WEATHER SERVICE DETROIT/PONTIAC MI
1200 PM EDT MON AUG 31 2015

NOTE: "FAIR" INDICATES FEW OR NO CLOUDS BELOW 12,000 FEET WITH NO
SIGNIFICANT WEATHER AND/OR OBSTRUCTION TO VISIBILITY.

MIZ047>049-052>055-059>063-066>070-074>076-081>083-311700-
SOUTHEAST LOWER MICHIGAN

CITY           SKY/WX    TMP DP  RH WIND       PRES   REMARKS
ADRIAN         MOSUNNY   79  68  69 W7        30.11F
ALMA           CLOUDY    69  66  90 SW6       30.11S
ANN ARBOR      MOSUNNY   77  66  68 W6        30.11S
BAD AXE        PTSUNNY   70  67  92 W8        30.09S
CARO           CLOUDY    65  64  97 SW6       30.10S FOG
DETROIT CITY   SUNNY     77  63  61 NW8       30.09S
DETROIT        MOSUNNY   79  68  69 W8        30.10S
FLINT          CLOUDY    70  64  81 SW6       30.12R
GROSSE ILE     MOSUNNY   81  70  69 W7        30.09S
HILLSDALE      PTSUNNY   79  71  77 NW3       30.12F
HOWELL         MOSUNNY   70  68  92 W6        30.12S FOG

CITY           SKY/WX    TMP DP  RH WIND       PRES   REMARKS
JACKSON        CLOUDY    73  67  81 W8        30.12S
LAMBERTVILLE   MOSUNNY   80  69  69 CALM      30.12R
LANSING        MOSUNNY   72  65  78 W5        30.12R
LAPEER         CLOUDY    70  64  82 W5        30.11S HAZE
MASON          MOSUNNY   72  65  79 W5        30.12S
MONROE         MOSUNNY   80  69  68 W7        30.10S
MT. CLEMENS    MOSUNNY   74  65  74 NW7       30.09S
PONTIAC        PTSUNNY   69  63  81 NW6       30.11S
PORT HOPE        N/A     75  66  73 W6        30.05S
PORT HURON     CLOUDY    70  64  83 W3        30.10S
TRI CITIES     CLOUDY    70  63  78 SW8       30.10S
MIDLAND        CLOUDY    69  64  85 SW7       30.09S
TROY           SUNNY     74  65  71 NW8       30.12S
SAGINAW HB     CLOUDY    66  64  94 SW6       30.10S FOG
$$
MIZ043>046-050>051-056>058-064>065-071>073-077>080-311700-
SOUTHWEST LOWER MICHIGAN

CITY           SKY/WX    TMP DP  RH WIND       PRES   REMARKS
BATTLE CREEK   CLOUDY    75  67  76 VRB5      30.12S
BENTON HARBOR  PTSUNNY   77  69  76 SW6       30.10R
BIG RAPIDS     CLOUDY    69  67  93 MISG      30.09S
COLDWATER      CLOUDY    78  70  76 NW3       30.12S
FREMONT        CLOUDY    67  67 100 S6        30.10R
HOLLAND        PTSUNNY   76  67  73 S3        30.11S
GRAND RAPIDS   MOSUNNY   73  65  75 SW6       30.11S
IONIA          CLOUDY    70  65  84 SW3       30.10F HAZE
KALAMAZOO      CLOUDY    74  67  78 CALM      30.11F
LUDINGTON      CLOUDY    72  67  84 SW10      30.08S
MARSHALL       CLOUDY    74  68  80 CALM      30.11F HAZE
MOUNT PLEASANT CLOUDY    72  65  78 SW6       30.09S
MUSKEGON       PTSUNNY   74  65  73 SW9       30.10R
SOUTH HAVEN    MOSUNNY   76  67  73 CALM      30.10S
$$
MIZ016>042-311700-
NORTHERN LOWER MICHIGAN

CITY           SKY/WX    TMP DP  RH WIND       PRES   REMARKS
ALPENA         PTSUNNY   72  65  78 SW6       30.04S
BEAVER ISLAND  CLOUDY    67  64  89 SW9G16    30.02S
BELLAIRE       PTSUNNY   73  65  74 S7        30.04F
CADILLAC       SUNNY     73  66  79 SW8       30.08S
CHARLEVOIX     MOSUNNY   73  66  78 SW12      30.06R
FRANKFORT      PTSUNNY   71  66  85 SW12G17   30.05S
GAYLORD        PTSUNNY   70  65  84 SW10      30.07R
GRAYLING       CLOUDY    71  64  80 SW9       30.08S
HARBOR SPRINGS CLOUDY    70  66  85 SW6       30.03S
HOUGHTON LAKE  PTSUNNY   69  64  84 W6        30.09S
MANISTEE       CLOUDY    70  64  83 SE5       30.07S
OSCODA         SUNNY     77  66  69 SW5       30.05S
PELLSTON       CLOUDY    71  65  81 SW7       30.03S
ROGERS CITY    CLOUDY    70  66  85 SW6       30.04F
TRAVERSE CITY  PTSUNNY   73  64  73 W12       30.05R
$$
MIZ007>008-015-311700-
EASTERN UPPER MICHIGAN

CITY           SKY/WX    TMP DP  RH WIND       PRES   REMARKS
KINROSS        CLOUDY    70  66  88 S5        30.02S
MACKINAC ISLAN CLOUDY    68  65  88 W9G16     30.03R
NEWBERRY       CLOUDY    70  65  85 S7        30.00S
S. S. MARIE    CLOUDY    69  65  86 VRB3      30.01R
$$
MIZ004>006-011>014-085-311700-
CENTRAL UPPER MICHIGAN

CITY           SKY/WX    TMP DP  RH WIND       PRES   REMARKS
MANISTIQUE     FOG       65  64  96 S5        30.00S VSB 3/4
ESCANABA       CLOUDY    66  64  94 S6        30.00S
MENOMINEE      CLOUDY    66  61  82 W7        30.02R
SAWYER-GWINN   SUNNY     75  63  64 SW6       29.99S
$$
MIZ001>003-009>011-084-311700-
WESTERN UPPER MICHIGAN

CITY           SKY/WX    TMP DP  RH WIND       PRES   REMARKS
IRON MOUNTAIN  SUNNY     75  64  68 VRB3      30.00S
HOUGHTON       SUNNY     74  64  71 SE5       29.93S
IRONWOOD       SUNNY     75  63  64 S6        29.91F
$$

ABBREVIATIONS USED IN REMARKS
   TC - TEMPERATURE IN CELSIUS
  WCI - WIND CHILL INDEX
   HX - HEAT INDEX
  VSB - VISIBILITY



USA.gov is the U.S. government's official web portal to all federal, state and local government web resources and services.